Regional Weather Roundup
Issued by NWS

Home | Current Version | Previous Version | Text Only | Print | Product List | Glossary On
Versions: 1 2 3 4 5 6 7 8 9 10 11 12 13 14 15 16 17 18 19 20 21 22 23 24 25 26 27 28 29 30 31 32 33 34 35 36 37 38 39 40 41 42 43 44 45 46 47 48 49 50
000
ASUS43 KDTX 291610
RWRMI
MICHIGAN HOURLY REGIONAL WEATHER ROUNDUP
NATIONAL WEATHER SERVICE DETROIT/PONTIAC MI
1200 PM EDT SAT APR 29 2017

NOTE: "FAIR" INDICATES FEW OR NO CLOUDS BELOW 12,000 FEET WITH NO
SIGNIFICANT WEATHER AND/OR OBSTRUCTION TO VISIBILITY.

MIZ047>049-052>055-059>063-066>070-074>076-081>083-291700-
SOUTHEAST LOWER MICHIGAN

CITY           SKY/WX    TMP DP  RH WIND       PRES   REMARKS
ADRIAN         CLOUDY    47  41  80 E9        30.20R
ALMA           PTSUNNY   49  34  55 N9        30.19F
ANN ARBOR      CLOUDY    48  37  65 E9        30.19R
BAD AXE        PTSUNNY   44  34  66 NE10      30.22S
CARO           PTSUNNY   47  36  65 N9        30.20S
DETROIT CITY   CLOUDY    46  35  65 NE10      30.22R
DETROIT        CLOUDY    48  35  60 NE12      30.22R
FLINT          CLOUDY    49  37  63 NE14      30.19R
GROSSE ILE     CLOUDY    46  36  68 NE13      30.20R
HILLSDALE      CLOUDY    48  41  76 E9        30.17R
HOWELL         CLOUDY    49  35  59 E9        30.18S

CITY           SKY/WX    TMP DP  RH WIND       PRES   REMARKS
JACKSON        CLOUDY    49  39  68 NE12      30.19R
LAMBERTVILLE   DRIZZLE   43  41  92 E5        30.20R
LANSING        CLOUDY    51  37  58 NE14      30.18S
LAPEER         PTSUNNY   47  34  61 NE7G18    30.20R
MASON          CLOUDY    48  40  74 NE8       30.18S
MONROE         CLOUDY    47  37  66 NE5       30.20R
MT. CLEMENS    CLOUDY    46  35  65 NE10      30.21R
PONTIAC        CLOUDY    47  35  63 E9        30.18R
PORT HOPE        N/A     42  33  70 N18       30.22F
PORT HURON     CLOUDY    41  32  70 N14       30.23R
TRI CITIES     CLOUDY    49  34  56 N8        30.20F
MIDLAND        FAIR      50  30  46 NE7       30.19F
TROY           CLOUDY    47  32  56 NE9       30.22R
SAGINAW HB     PTSUNNY   50  32  50 NE10G18   30.19F
$$
MIZ043>046-050>051-056>058-064>065-071>073-077>080-291700-
SOUTHWEST LOWER MICHIGAN

CITY           SKY/WX    TMP DP  RH WIND       PRES   REMARKS
BATTLE CREEK   CLOUDY    51  38  60 NE14      30.17R
BENTON HARBOR  CLOUDY    54  39  57 E12       30.15R
BIG RAPIDS     PTSUNNY   47  30  51 N10G17    30.18S
COLDWATER      CLOUDY    50  43  74 NE9       30.17R
FREMONT        FAIR      50  31  47 N9G16     30.18R
HOLLAND        PTSUNNY   51  36  56 NE12      30.18R
GRAND RAPIDS   CLOUDY    51  37  58 NE12      30.18R
IONIA          FAIR      50  35  57 E14G20    30.18R
KALAMAZOO      CLOUDY    52  37  56 E8        30.17R
LUDINGTON      MOSUNNY   47  31  54 NE13      30.22S
MARSHALL       CLOUDY    51  41  69 NE6       30.17R
MOUNT PLEASANT CLOUDY    49  32  52 N8        30.19S
MUSKEGON       PTSUNNY   51  32  48 NE12      30.19R
SOUTH HAVEN    CLOUDY    52  38  59 NE10      30.17R
$$
MIZ016>042-291700-
NORTHERN LOWER MICHIGAN

CITY           SKY/WX    TMP DP  RH WIND       PRES   REMARKS
ALPENA         SUNNY     47  30  51 N13G22    30.24S
BEAVER ISLAND  SUNNY     43  28  56 NW9G17    30.28S
BELLAIRE       SUNNY     43  28  54 N8        30.27S
CADILLAC       CLOUDY    45  30  55 N9G16     30.20S
CHARLEVOIX     SUNNY     40  30  67 N12G17    30.31S WCI  33
FRANKFORT      PTSUNNY   43  29  59 N7G17     30.26F
GAYLORD        SUNNY     44  26  49 NW6       30.22S
GRAYLING       CLOUDY    46  27  48 NW6       30.22F
HARBOR SPRINGS SUNNY     43  29  58 NW7       30.26S
HOUGHTON LAKE  CLOUDY    47  26  44 N12       30.20F
MANISTEE       CLOUDY    46  28  49 NE12      30.24S
OSCODA         SUNNY     49  28  43 N14G20    30.20F
PELLSTON       SUNNY     44  27  51 NW9G18    30.27S
ROGERS CITY    MOSUNNY   41  30  65 NW13G23   30.26S
TRAVERSE CITY  CLOUDY    42  29  59 NE13      30.25F
$$
MIZ007>008-015-291700-
EASTERN UPPER MICHIGAN

CITY           SKY/WX    TMP DP  RH WIND       PRES   REMARKS
KINROSS        SUNNY     40  27  59 NW16G23   30.25S WCI  31
MACKINAC ISLAN SUNNY     44  29  56 N8        30.25F
NEWBERRY       SUNNY     42  27  56 N15       30.27R
S. S. MARIE    SUNNY     42  28  57 NW12G20   30.25R
MUNISING         N/A     39  26  59 NW15      30.32R WCI  31
$$
MIZ004>006-011>014-085-291700-
CENTRAL UPPER MICHIGAN

CITY           SKY/WX    TMP DP  RH WIND       PRES   REMARKS
MANISTIQUE     SUNNY     45  25  45 N14G21    30.28S
ESCANABA       SUNNY     44  26  49 NE12G20   30.30S
MENOMINEE      MOSUNNY   42  30  62 E13       30.30S
SAWYER-GWINN   SUNNY     39  21  48 NE16G23   30.31R WCI  30
$$
MIZ001>003-009>011-084-291700-
WESTERN UPPER MICHIGAN

CITY           SKY/WX    TMP DP  RH WIND       PRES   REMARKS
IRON MOUNTAIN  SUNNY     44  21  40 N12G20    30.28S
HOUGHTON       SUNNY     42  21  43 N7        30.35R
COPPER HARBOR    N/A     40  30  67 N13       30.36R WCI  32
IRONWOOD       SUNNY     41  22  46 NE6       30.34S
$$

ABBREVIATIONS USED IN REMARKS
   TC - TEMPERATURE IN CELSIUS
  WCI - WIND CHILL INDEX
   HX - HEAT INDEX
  VSB - VISIBILITY





USA.gov is the U.S. government's official web portal to all federal, state and local government web resources and services.